Terminal Aerodrome Forecast
Issued by NWS

Home | Current Version | Previous Version | Text Only | Print | Product List | Glossary On
Versions: 1 2 3 4 5 6 7 8 9 10 11 12 13 14 15 16
257
FTUS43 KDLH 261731
TAFBRD
TAF
KBRD 261731Z 2618/2718 04005KT P6SM OVC007
     FM262300 04005KT P6SM BKN012
     FM270200 00000KT P6SM BKN060
     FM270600 00000KT 5SM BR BKN025
     FM271500 04007KT P6SM BKN040=

USA.gov is the U.S. government's official web portal to all federal, state and local government web resources and services.